Theta_e
333 333 335 332 334 334 335 335 335 341 345 345 344 343 343 342 342 344 345 343 344 345 341 340 338 336 334 335 336 337 339 341 341 339 335 333 334 332 331 331 330 330 330 331
333 334 332 331 332 334 334 335 336 340 344 344 344 342 342 341 344 344 342 344 345 343 340 340 340 338 336 335 336 337 338 341 339 336 333 334 333 333 331 329 329 330 330 331
334 334 330 331 332 333 334 335 335 338 344 343 342 343 342 342 342 342 341 344 343 342 342 340 342 340 337 337 337 337 338 340 337 335 334 332 331 332 330 328 331 330 330 331
332 331 330 331 332 332 334 335 337 340 341 341 343 341 343 342 343 342 341 341 340 341 342 342 343 342 341 338 336 337 339 339 338 337 332 332 332 332 331 330 330 332 333 332
332 331 331 331 333 333 335 336 340 341 341 344 344 341 345 343 343 343 342 342 342 342 342 342 343 343 342 339 336 337 338 338 336 335 333 333 332 331 331 329 332 334 333 333
331 330 330 332 336 334 338 340 341 341 340 341 345 342 341 341 341 340 342 341 341 341 340 341 341 344 344 342 338 336 337 337 336 335 334 333 332 329 332 330 332 333 333 333
331 331 330 331 337 338 340 343 342 342 341 338 344 343 343 341 341 339 340 338 340 340 339 340 342 342 341 344 343 338 336 336 336 334 334 334 331 329 334 333 334 333 333 333
331 332 331 332 333 336 340 341 340 340 339 337 344 341 345 341 343 343 340 339 341 341 340 341 340 340 340 341 344 341 337 337 336 336 336 335 333 332 335 333 334 335 333 332
332 332 330 332 334 336 339 339 339 341 342 338 339 340 342 341 342 341 340 342 343 342 341 341 341 342 341 341 343 343 340 339 338 338 338 339 338 337 335 333 334 335 336 335
332 333 330 335 335 336 336 338 340 341 339 340 337 337 341 340 340 340 341 343 342 340 339 340 339 339 339 340 342 343 343 341 342 342 341 341 339 339 338 337 335 335 336 336
330 333 332 331 334 334 338 339 340 341 339 340 338 339 339 342 344 344 343 342 341 339 337 336 335 334 335 334 337 342 343 342 343 343 342 342 341 339 339 339 334 336 338 336
331 336 334 332 337 336 338 339 341 342 343 339 340 337 344 344 345 344 343 342 340 337 335 333 333 334 334 335 335 340 344 343 343 342 340 339 338 338 337 337 332 336 338 338
335 337 335 335 339 339 340 340 340 343 344 338 341 340 344 344 344 343 343 341 339 336 335 334 333 335 335 336 337 340 342 342 340 337 336 336 337 338 338 337 332 337 337 337
335 343 336 332 333 332 337 337 336 340 339 334 335 338 346 346 346 345 343 339 336 334 335 335 336 335 335 336 337 341 340 337 338 336 337 338 338 338 337 337 336 337 337 337
343 342 339 334 335 336 333 333 335 337 336 338 334 339 342 346 347 344 341 337 334 334 334 335 337 338 336 335 337 339 338 338 337 336 333 332 334 335 337 336 337 336 334 330
344 341 340 338 338 336 335 334 336 337 338 339 340 342 343 344 343 343 338 336 334 334 335 335 337 338 337 336 338 339 338 337 337 335 334 334 332 334 334 336 338 338 333 328
347 345 343 337 340 338 337 336 336 336 338 339 343 342 345 346 343 340 337 336 335 335 336 336 338 338 337 337 339 339 337 336 336 334 332 331 329 329 329 329 332 334 335 335
347 348 342 340 343 342 338 338 339 340 338 338 343 343 344 344 342 337 335 335 335 336 335 335 336 335 335 337 338 337 336 335 335 330 329 328 327 325 322 325 326 327 327 329
346 345 342 340 340 337 334 340 340 342 340 342 343 343 344 343 340 338 336 335 335 336 335 336 335 334 337 337 336 336 336 334 331 328 328 326 324 324 322 321 322 324 324 324
343 347 342 341 335 334 333 340 340 344 339 339 343 344 346 344 343 338 338 335 336 337 337 335 334 335 337 337 337 336 335 334 329 327 325 324 323 323 322 322 323 324 323 322
343 340 337 335 337 333 333 341 344 345 343 343 345 346 346 347 341 341 336 336 336 337 338 336 336 336 336 337 338 336 335 332 331 328 325 324 323 322 320 322 323 324 323 322
335 336 336 339 337 335 339 341 344 352 346 346 346 346 347 346 342 338 338 339 339 338 338 336 336 336 335 336 336 335 333 332 330 327 325 324 322 321 320 321 321 321 322 322
338 337 340 338 334 344 343 343 345 346 349 347 347 346 346 345 343 338 339 340 340 338 337 335 335 335 334 334 335 333 333 332 329 328 324 322 321 321 320 322 323 322 321 321
341 340 340 346 333 344 344 343 343 344 344 344 345 346 346 344 342 340 340 341 342 338 338 336 337 335 332 333 333 334 334 332 331 329 324 323 322 320 322 321 320 320 320 320
339 343 342 344 342 340 341 341 341 341 343 344 343 344 345 343 342 341 340 342 341 339 337 335 337 333 331 332 333 334 333 332 331 328 325 324 321 322 322 322 322 321 321 317
340 339 340 335 342 341 340 338 336 340 340 341 343 344 343 343 342 341 341 340 341 340 337 336 337 332 332 333 333 332 332 331 330 329 327 323 321 322 322 322 322 320 316 313
Wind_Speed
1 10 6 9 7 7 5 7 8 1 2 6 4 4 3 3 3 6 4 3 4 2 5 2 2 2 3 3 9 14 16 16 15 13 11 9 10 8 11 11 11 10 9 9
8 8 5 7 3 5 5 9 9 3 2 6 5 5 4 4 6 3 1 4 1 4 7 5 2 3 3 2 5 8 12 14 13 10 9 6 5 6 9 10 11 12 11 10
10 6 1 5 7 6 9 8 11 8 1 2 9 6 9 8 6 4 3 4 3 2 2 3 1 1 1 2 5 8 13 16 18 14 11 7 4 6 9 11 10 11 13 13
8 2 5 10 8 6 13 6 6 4 8 7 7 4 9 4 1 2 2 3 2 1 1 3 3 5 5 4 8 12 15 16 16 16 14 11 9 8 7 8 8 9 12 14
3 5 7 10 5 7 7 5 4 4 5 7 2 10 11 5 6 4 2 4 2 2 3 4 2 5 5 6 10 12 11 13 14 16 16 13 12 9 8 11 8 10 11 13
12 1 6 3 5 1 5 4 5 4 4 9 6 5 11 9 7 7 8 7 5 5 4 4 3 4 5 6 9 11 14 15 17 17 17 16 14 16 11 12 11 10 11 12
9 8 4 3 4 5 4 8 3 3 2 7 3 5 7 7 4 4 4 6 7 6 8 9 8 8 6 7 9 11 13 16 18 18 18 16 19 15 12 13 14 9 11 13
5 9 8 3 5 7 5 5 7 10 6 2 5 3 7 6 4 3 2 4 8 9 10 11 13 12 12 8 6 12 13 14 16 17 15 13 13 13 12 14 13 11 10 11
4 4 7 2 2 5 5 7 4 6 4 10 1 5 5 9 7 5 7 7 10 10 10 11 13 13 12 8 2 10 12 12 11 12 12 10 10 12 12 14 13 13 12 11
3 9 3 5 4 3 6 2 5 7 6 8 2 5 6 9 7 5 6 9 9 8 10 9 11 14 13 11 7 5 8 10 11 10 11 10 9 10 12 12 14 14 12 13
10 6 4 5 6 7 4 7 4 5 5 9 7 5 6 8 6 5 6 7 6 7 8 9 10 12 14 15 12 7 5 5 6 7 8 8 10 11 11 12 9 13 13 14
9 4 7 3 4 2 4 4 4 7 2 4 8 10 5 7 4 5 6 5 6 6 9 9 10 12 13 14 14 9 5 5 6 6 7 7 8 10 10 12 10 7 9 11
8 6 7 9 10 6 6 4 1 3 4 11 9 3 4 8 6 5 4 3 3 6 8 7 9 10 11 14 13 11 8 7 8 8 7 5 6 8 10 9 9 7 7 9
5 4 8 9 10 6 4 7 5 6 7 9 10 4 7 9 8 6 3 1 6 6 7 7 8 9 11 12 12 9 8 9 9 7 7 7 7 7 9 8 7 9 8 7
4 6 6 5 4 6 7 7 6 9 11 9 14 9 4 9 8 5 2 2 3 5 6 8 8 8 11 12 9 7 7 9 7 7 7 8 9 7 8 8 6 7 7 8
4 4 5 7 5 7 9 9 9 11 12 12 12 12 3 7 6 6 3 2 3 5 7 7 7 8 11 10 7 5 7 7 7 6 5 6 9 9 10 8 4 1 3 5
4 3 5 10 2 6 10 13 11 9 9 10 11 8 9 10 8 5 3 2 3 4 6 7 6 8 8 7 3 4 5 4 4 4 5 7 7 8 9 9 8 5 4 4
5 5 3 4 3 10 3 1 5 9 12 10 11 7 8 8 6 5 3 2 2 3 5 5 6 7 5 3 3 4 5 2 2 4 5 6 6 7 9 8 8 8 6 5
4 5 3 5 8 7 12 6 5 6 8 6 9 7 9 6 5 7 4 3 3 2 4 4 5 4 3 3 4 5 4 4 3 3 4 5 6 6 8 9 8 7 7 7
4 4 6 3 7 11 11 4 3 3 10 5 9 9 11 9 9 4 6 6 5 3 3 4 2 2 3 4 4 5 5 5 2 2 3 4 5 7 9 9 8 7 8 9
6 4 8 5 7 8 8 5 7 7 2 3 8 10 12 11 6 6 6 6 6 5 5 4 4 4 4 4 4 6 5 4 2 2 5 5 6 9 8 8 8 7 9 11
7 6 7 3 7 11 4 6 7 7 3 2 6 10 13 12 7 8 7 7 8 8 7 7 6 5 4 5 6 6 5 2 3 4 6 7 8 9 8 8 9 9 8 11
6 4 5 3 7 2 1 12 5 6 8 4 6 9 12 12 12 10 10 10 9 10 9 8 6 5 5 5 5 7 4 4 4 5 4 5 7 7 7 7 7 10 7 10
5 3 5 3 7 5 8 7 11 12 12 11 7 9 11 13 12 12 10 10 10 12 11 9 7 7 6 5 5 6 5 5 6 6 5 6 6 6 6 8 8 9 11 12
4 6 6 7 11 8 3 5 8 11 11 11 14 12 13 13 13 12 11 12 14 13 11 10 10 8 7 5 4 5 5 5 5 5 6 7 7 5 7 7 8 9 8 7
8 12 9 10 6 4 9 9 14 12 11 9 9 11 13 14 15 14 13 15 16 15 14 12 11 10 10 8 6 5 5 5 5 6 7 6 8 9 9 9 10 5 2 4
Wind_Direction
115 283 18 -0 -0 353 327 303 302 55 40 297 5 317 105 153 203 174 207 189 218 271 135 145 80 54 61 104 160 173 180 187 186 188 196 208 226 234 233 227 220 217 223 230
237 242 23 334 337 309 308 303 278 193 151 287 2 335 66 141 119 147 188 199 140 137 170 161 118 67 53 146 175 170 173 177 185 196 201 221 258 245 245 237 230 224 220 226
280 340 0 294 290 270 276 310 310 313 74 186 306 167 121 126 138 135 145 174 149 54 237 184 180 0 245 185 166 175 180 186 184 188 189 196 188 238 246 242 239 235 221 221
272 65 257 288 274 304 294 358 276 259 275 352 2 340 112 150 100 186 156 142 60 44 334 225 223 219 221 189 172 182 191 192 196 198 198 198 213 214 257 246 231 229 226 218
271 268 266 277 6 315 330 307 239 219 264 293 151 283 103 158 138 78 85 80 75 18 352 352 266 237 227 180 187 193 194 202 208 205 205 205 215 219 235 239 234 239 225 223
273 306 268 4 32 310 130 161 196 199 273 264 80 299 106 78 47 67 67 63 55 31 351 5 338 277 256 221 201 193 194 204 213 216 212 210 216 217 216 226 228 225 227 214
199 224 146 211 168 158 251 218 222 257 300 291 121 251 47 77 55 19 36 51 45 15 20 7 9 352 328 239 231 214 200 207 217 220 222 217 226 223 234 217 231 223 224 222
260 168 177 153 303 339 243 297 308 304 292 0 153 267 95 77 68 116 113 53 37 17 15 15 25 16 9 356 235 222 215 217 224 226 233 235 235 239 239 226 234 227 228 230
223 228 117 45 161 287 122 245 16 289 210 267 50 147 138 141 115 120 79 54 42 43 44 39 42 31 25 22 276 236 237 242 253 255 249 246 244 244 235 227 230 237 233 237
267 276 105 122 183 113 289 69 230 201 276 290 139 240 121 174 136 102 71 65 69 52 42 37 31 29 20 13 10 298 269 277 291 285 274 263 253 253 240 237 229 235 232 232
242 256 200 204 206 337 180 209 251 297 291 308 292 72 80 116 104 94 90 85 70 50 31 20 23 25 16 14 13 353 332 317 317 312 307 280 267 266 249 234 236 232 235 238
198 251 249 291 82 295 295 327 274 284 161 241 301 297 90 125 122 126 113 94 59 41 20 14 18 16 16 12 7 23 15 5 2 348 332 310 282 268 262 251 243 248 248 246
171 209 245 201 184 182 237 170 262 288 282 271 294 30 128 133 146 151 131 107 86 4 25 14 9 13 18 5 3 9 24 24 -0 350 348 338 298 276 271 256 248 251 252 252
196 207 260 298 351 329 211 211 216 243 277 318 268 304 149 165 169 163 153 21 21 6 17 16 -0 6 3 4 4 14 31 14 3 7 3 355 336 307 289 280 238 243 236 231
223 239 234 273 262 242 278 269 215 247 280 275 304 316 156 185 181 169 153 23 351 0 0 4 -0 354 351 1 359 19 23 11 10 10 17 28 18 355 318 302 274 274 241 222
191 243 261 255 230 241 251 263 261 271 281 281 274 274 149 166 174 186 180 239 320 2 354 352 348 349 351 352 351 13 20 12 358 4 10 9 8 12 15 11 352 219 205 212
204 176 232 267 173 254 251 261 284 276 274 264 269 335 153 178 202 195 194 251 331 341 339 345 342 349 347 346 340 5 14 345 349 355 0 8 23 36 29 30 32 11 317 300
187 197 238 289 218 247 340 77 280 279 281 266 256 267 194 192 186 197 193 319 308 323 331 336 342 341 338 323 334 338 339 306 345 0 15 32 33 31 23 24 20 16 11 0
270 227 195 245 242 283 286 184 225 233 291 235 245 210 193 178 197 215 227 217 266 302 313 324 339 329 299 292 321 314 310 290 324 19 26 19 10 355 357 1 1 352 342 327
191 250 248 169 275 280 304 127 184 195 264 143 205 203 197 190 231 146 171 201 211 230 263 287 286 308 278 276 299 294 300 273 334 350 348 354 355 344 338 336 330 324 321 307
174 208 239 247 277 288 336 151 164 239 29 122 191 204 202 210 268 110 165 195 211 219 232 232 244 279 276 255 265 276 280 268 295 306 329 330 334 335 332 328 316 305 302 305
236 237 236 220 267 281 58 156 241 3 342 291 212 208 211 218 204 195 198 209 211 216 226 223 235 250 249 243 249 278 278 271 288 317 318 326 327 325 329 320 315 310 308 305
235 279 302 274 305 69 214 255 265 293 297 320 285 232 222 221 224 218 221 217 221 224 231 236 236 248 242 245 261 285 296 270 276 298 313 317 320 322 321 323 327 311 311 308
185 195 243 279 269 273 279 284 263 271 266 283 284 270 235 235 237 233 228 226 227 224 226 226 230 239 240 235 253 266 273 270 270 286 298 308 304 328 329 323 322 323 331 331
327 160 239 254 265 292 122 24 359 331 301 274 268 270 246 241 247 243 240 232 234 229 222 222 225 229 230 224 249 253 255 254 253 263 279 288 297 306 308 311 324 333 349 348
206 252 239 274 22 307 300 328 324 312 311 304 284 265 247 248 248 249 243 240 232 225 221 213 219 220 225 229 237 239 237 232 248 256 261 305 308 313 318 321 328 304 58 30